W6UA-13 Weather Reports


time (UTC)temp
C
wind
direction
speed
KPH
gust
KPH
rain 1hr
cm
rain 24hr
cm
rain mn
cm
humidity
%
barometer
mb
20260507040437 14 345 1.6 8.0 0.00 0.00 0.00 77 1018.4
20260507034937 14 302 1.6 3.2 0.00 0.00 0.00 75 1018.4
20260507033437 15 355 4.8 6.4 0.00 0.00 0.00 74 1018.2
20260507031937 15 274 1.6 4.8 0.00 0.00 0.00 72 1018.1
20260507030437 15 281 4.8 9.7 0.00 0.00 0.00 70 1018.0
20260507024937 16 330 4.8 11.3 0.00 0.00 0.00 68 1018.0
20260507023437 17 250 4.8 11.3 0.00 0.00 0.00 65 1018.0
20260507021937 17 314 4.8 14.5 0.00 0.00 0.00 63 1018.1
20260507020437 18 229 4.8 11.3 0.00 0.00 0.00 60 1018.2
20260507014937 19 323 4.8 8.0 0.00 0.00 0.00 58 1018.3
20260507013437 20 297 4.8 8.0 0.00 0.00 0.00 58 1018.4
20260507011937 20 342 4.8 17.7 0.00 0.00 0.00 56 1018.4
20260507010437 20 311 6.4 11.3 0.00 0.00 0.00 57 1018.3
20260507004937 21 316 4.8 9.7 0.00 0.00 0.00 54 1018.3
20260507003437 22 300 1.6 9.7 0.00 0.00 0.00 53 1018.4
20260507001937 21 211 3.2 9.7 0.00 0.00 0.00 57 1018.1
20260507000437 21 203 4.8 14.5 0.00 0.00 0.00 57 1018.0
20260506234937 22 264 6.4 20.9 0.00 0.00 0.00 55 1018.0
20260506233437 22 215 6.4 11.3 0.00 0.00 0.00 54 1018.0
20260506231937 23 213 4.8 14.5 0.00 0.00 0.00 53 1017.9
20260506230437 23 0 4.8 8.0 0.00 0.00 0.00 52 1017.9
20260506224937 23 243 3.2 6.4 0.00 0.00 0.00 54 1017.9
20260506223437 22 158 6.4 12.9 0.00 0.00 0.00 55 1017.9
20260506221937 22 250 4.8 11.3 0.00 0.00 0.00 54 1017.9
20260506220437 22 294 6.4 14.5 0.00 0.00 0.00 53 1017.9
20260506214937 22 293 4.8 11.3 0.00 0.00 0.00 54 1017.9
20260506213438 22 335 4.8 11.3 0.00 0.00 0.00 56 1018.0
20260506211938 21 236 6.4 16.1 0.00 0.00 0.00 60 1018.0
20260506210438 20 220 8.0 17.7 0.00 0.00 0.00 62 1018.2
20260506204938 20 200 8.0 19.3 0.00 0.00 0.00 62 1018.1
20260506203438 20 229 8.0 22.5 0.00 0.00 0.00 64 1018.4
20260506201938 19 278 11.3 29.0 0.00 0.00 0.00 65 1018.4
20260506200438 19 231 12.9 22.5 0.00 0.00 0.00 63 1018.4
20260506194938 20 259 11.3 24.1 0.00 0.00 0.00 62 1018.4
20260506193438 20 212 8.0 20.9 0.00 0.00 0.00 60 1018.5
20260506191938 21 248 4.8 14.5 0.00 0.00 0.00 60 1018.5
20260506190438 20 155 8.0 14.5 0.00 0.00 0.00 62 1018.5
20260506184938 20 242 6.4 12.9 0.00 0.00 0.00 61 1018.6
20260506183438 20 195 4.8 11.3 0.00 0.00 0.00 62 1018.6
20260506181938 20 165 4.8 9.7 0.00 0.00 0.00 61 1018.8
20260506180438 19 221 6.4 11.3 0.00 0.00 0.00 62 1018.8
20260506174938 19 204 4.8 12.9 0.00 0.00 0.00 63 1018.9
20260506173438 18 169 6.4 9.7 0.00 0.00 0.00 65 1018.9
20260506171938 18 179 6.4 11.3 0.00 0.00 0.00 66 1018.9
20260506170438 18 153 3.2 9.7 0.00 0.00 0.00 66 1018.7
20260506164938 18 207 3.2 8.0 0.00 0.00 0.00 66 1018.5
20260506163438 18 205 3.2 8.0 0.00 0.00 0.00 67 1018.5
20260506161938 18 201 0.0 3.2 0.00 0.00 0.00 66 1018.5
20260506160438 17 264 1.6 3.2 0.00 0.00 0.00 69 1018.5
20260506154938 16 240 1.6 3.2 0.00 0.00 0.00 72 1018.5
20260506153438 15 262 1.6 3.2 0.00 0.00 0.00 75 1018.5
20260506151938 14 325 0.0 3.2 0.00 0.00 0.00 79 1018.5
20260506150438 13 274 0.0 3.2 0.00 0.00 0.00 82 1018.5
20260506144938 12 329 1.6 4.8 0.00 0.00 0.00 85 1018.5
20260506143438 11 342 0.0 0.0 0.00 0.00 0.00 87 1018.4
20260506141939 10 342 0.0 0.0 0.00 0.00 0.00 89 1018.1
20260506140438 9 333 0.0 0.0 0.00 0.00 0.00 89 1018.0
20260506134938 8 359 0.0 0.0 0.00 0.00 0.00 89 1018.0
20260506133438 8 108 0.0 0.0 0.00 0.00 0.00 89 1018.0
20260506131938 8 272 0.0 0.0 0.00 0.00 0.00 89 1017.7
20260506130438 8 0 0.0 0.0 0.00 0.00 0.00 89 1017.5
20260506124938 7 329 3.2 3.2 0.00 0.00 0.00 88 1017.5
20260506123438 8 359 1.6 3.2 0.00 0.00 0.00 88 1017.4
20260506121938 8 356 1.6 3.2 0.00 0.00 0.00 88 1017.5
20260506120438 8 343 1.6 1.6 0.00 0.00 0.00 88 1017.5
20260506114938 8 313 1.6 3.2 0.00 0.00 0.00 88 1017.5
20260506113438 8 343 0.0 3.2 0.00 0.00 0.00 88 1017.7
20260506111938 8 330 1.6 3.2 0.00 0.00 0.00 87 1017.8
20260506110438 8 351 0.0 3.2 0.00 0.00 0.00 88 1017.6
20260506104938 8 344 1.6 1.6 0.00 0.00 0.00 87 1017.6
20260506103438 9 1 0.0 1.6 0.00 0.00 0.00 87 1017.6
20260506101938 9 32 0.0 3.2 0.00 0.00 0.00 87 1017.5
20260506100439 9 352 0.0 3.2 0.00 0.00 0.00 87 1017.5
20260506094939 9 3 1.6 3.2 0.00 0.00 0.00 87 1017.5
20260506093439 9 49 0.0 3.2 0.00 0.00 0.00 87 1017.6
20260506091939 9 316 0.0 3.2 0.00 0.00 0.00 87 1017.6
20260506090439 10 334 1.6 4.8 0.00 0.00 0.00 87 1017.9
20260506084939 10 354 0.0 0.0 0.00 0.00 0.00 86 1018.0
20260506083439 10 340 0.0 0.0 0.00 0.00 0.00 86 1018.0
20260506081939 10 338 0.0 0.0 0.00 0.00 0.00 86 1018.1
20260506080439 10 12 0.0 0.0 0.00 0.00 0.00 86 1018.1
20260506073439 11 345 0.0 3.2 0.00 0.00 0.00 85 1018.0
20260506071939 11 359 1.6 3.2 0.00 0.00 0.00 85 1018.0
20260506070439 11 1 1.6 3.2 0.00 0.00 0.00 84 1017.8
20260506061939 12 335 1.6 4.8 0.00 0.00 0.00 84 1017.6
20260506060439 12 304 0.0 0.0 0.00 0.00 0.00 84 1017.5
20260506050439 12 326 0.0 0.0 0.00 0.00 0.00 82 1017.2
20260506044939 12 310 1.6 0.0 0.00 0.00 0.00 82 1017.0
20260506043439 12 329 1.6 4.8 0.00 0.00 0.00 81 1017.0
20260506041939 12 304 1.6 4.8 0.00 0.00 0.00 80 1016.9